Home > Weather > Istres > Past weeks

Flag for France Past Weather in Istres, Provence-Alpes-Côte d'Azur, France — Yesterday and Last 2 Weeks

Now
84 °F

Passing clouds.


Feels Like: 84 °F
Forecast: 68 / 86 °F
Wind: 8 mph from Northwest

Location: Istres Airport

Current Time: Jul 31, 2016 at 11:46:11 AM

Latest Report: Jul 31, 2016 at 11:00 AM


Visibility: N/A

Pressure: 29.92 "Hg

Humidity: 45%

Dew Point: 61 °F

Location of IstresLocation

Past Weather in Istres — Graph

°F

Istres Temperature Yesterday

Maximum temperature yesterday: 88 °F (at 1:30 PM)
Minimum temperature yesterday: 72 °F (at 12:30 AM)
Average temperature yesterday: 78 °F

High & Low Weather Summary for the Past Weeks

 TemperatureHumidityPressure
High95 °F (Jul 26, 3:30 PM)94% (Jul 22, 9:00 AM)30.18 "Hg (Jul 22, 9:00 AM)
Low59 °F (Jul 18, 6:00 AM)20% (Jul 19, 2:30 PM)29.89 "Hg (Jul 22, 7:30 PM)
Average78 °F54%30.00 "Hg
* Reported Jul 16 10:00 AM — Jul 31 10:30 AM, Istres, Weather by CustomWeather, © 2016

Note: Actual official high and low records may vary slightly from our data, if they occured in-between our weather recording intervals... More about our weather records

Advertising

Istres Weather History for the Previous 24 Hours

Scroll right to see more
 ConditionsComfort  
Time TempWeatherWind HumidityBarometerVisibility
10:30 AM
Sun, Jul 31
81 °FPassing clouds.7 mph54%29.92 "HgN/A
10:00 AM81 °FPassing clouds.7 mph51%29.92 "HgN/A
9:30 AM79 °FSunny.12 mph58%29.92 "Hg10 mi
9:00 AM79 °FPassing clouds.12 mph58%29.92 "HgN/A
8:30 AM79 °FSunny.2 mph58%29.89 "Hg10 mi
8:00 AM77 °FSunny.9 mph61%29.89 "Hg10 mi
7:30 AM77 °FWarm.13 mph57%29.89 "HgN/A
7:00 AM75 °FMild.14 mph61%29.89 "HgN/A
6:30 AM75 °FMild.12 mph61%29.92 "HgN/A
6:00 AM73 °FClear.12 mph74%29.92 "Hg10 mi
5:30 AM73 °FClear.9 mph74%29.95 "Hg10 mi
5:00 AM72 °FClear.9 mph78%29.95 "Hg10 mi
4:30 AM73 °FClear.9 mph69%29.95 "Hg10 mi
4:00 AM72 °FClear.5 mph65%29.95 "Hg10 mi
3:30 AM72 °FClear.No wind69%29.95 "Hg10 mi
3:00 AM72 °FClear.2 mph69%29.95 "Hg10 mi
2:30 AM73 °FClear.3 mph69%29.95 "Hg10 mi
2:00 AM75 °FMild.No wind65%29.95 "HgN/A
1:30 AM75 °FClear.3 mph65%29.95 "Hg10 mi
1:00 AM75 °FClear.3 mph69%29.95 "Hg10 mi
12:30 AM77 °FClear.7 mph65%29.95 "Hg10 mi
12:00 AM75 °FMild.5 mph74%29.95 "HgN/A
11:30 PM
Sat, Jul 30
75 °FPassing clouds.5 mph78%29.95 "HgN/A
11:00 PM75 °FClear.5 mph74%29.98 "Hg10 mi
10:30 PM77 °FPassing clouds.5 mph74%29.98 "HgN/A
10:00 PM77 °FSunny.7 mph74%29.95 "Hg10 mi
9:30 PM77 °FSunny.8 mph74%29.95 "Hg10 mi
9:00 PM77 °FSunny.9 mph79%29.95 "Hg10 mi
8:30 PM79 °FSunny.9 mph70%29.92 "Hg10 mi
8:00 PM79 °FSunny.12 mph74%29.92 "Hg10 mi
7:30 PM81 °FSunny.13 mph66%29.95 "Hg10 mi
7:00 PM82 °FSunny.14 mph51%29.92 "Hg10 mi
6:30 PM84 °FSunny.15 mph45%29.92 "Hg10 mi
6:00 PM84 °FSunny.16 mph48%29.95 "Hg10 mi
5:30 PM84 °FSunny.16 mph51%29.95 "Hg10 mi
5:00 PM86 °FSunny.16 mph49%29.95 "Hg10 mi
4:30 PM86 °FSunny.17 mph46%29.95 "Hg10 mi
4:00 PM88 °FSunny.16 mph38%29.95 "Hg10 mi
3:30 PM88 °FSunny.16 mph40%29.95 "Hg10 mi
3:00 PM88 °FSunny.17 mph43%29.95 "Hg10 mi
2:30 PM86 °FSunny.15 mph46%29.95 "Hg10 mi
2:00 PM86 °FSunny.15 mph49%29.98 "Hg10 mi
1:30 PM88 °FSunny.16 mph49%29.95 "Hg10 mi
1:00 PM84 °FSunny.16 mph55%29.98 "Hg10 mi
12:30 PM84 °FPassing clouds.13 mph58%29.95 "HgN/A
12:00 PM82 °FPassing clouds.13 mph62%29.95 "HgN/A
11:30 AM77 °FSunny.17 mph74%29.92 "Hg10 mi
11:00 AM73 °FLight rain. Broken clouds.18 mph83%29.92 "HgN/A
Weather by CustomWeather, © 2016

See weather overviewHow to use our weather pages